User: anonymous   Login
Location: Bijele Vode
(45.2833°N, 16.2000°E)
Time: 20:26:40
(UTC+00:00)
Language:

Okean 1 Rocket - Orbit

View from above orbital plane
View from above orbital plane
View from above satellite
View from above satellite

Ground track
Ground track

The orbit data is extracted from the following two-line orbital elements,

1 19275U 88056B   20333.13622783  .00000126  00000-0  12549-4 0  9998
2 19275  82.5177 231.7780 0020604  20.5861 339.6179 14.82766506749955
Epoch (UTC): 28 November 2020 03:16:10
Eccentricity: 0.0020604
inclination: 82.5177°
perigee height: 606 km
apogee height: 635 km
right ascension of ascending node: 231.7780°
argument of perigee: 20.5861°
revolutions per day: 14.82766506
mean anomaly at epoch: 339.6179°
orbit number at epoch: 74995

The dashed part of the orbit path shows where the satellite is in the earth's shadow,  

DLR